TimeCDT,TemperatureF,Dew PointF,Humidity,Sea Level PressureIn,VisibilityMPH,Wind Direction,Wind SpeedMPH,Gust SpeedMPH,PrecipitationIn,Events,Conditions,WindDirDegrees,DateUTC
12:53 AM,66.9,54.0,63,29.97,10.0,SSE,5.8,-,N/A,,Partly Cloudy,160,2012-03-20 05:53:00
1:53 AM,68.0,54.0,61,29.97,10.0,SSE,6.9,-,N/A,,Clear,160,2012-03-20 06:53:00
2:53 AM,66.9,54.0,63,29.96,10.0,SSE,6.9,-,N/A,,Clear,150,2012-03-20 07:53:00
3:53 AM,66.0,54.0,65,29.95,10.0,SSE,5.8,-,N/A,,Clear,160,2012-03-20 08:53:00
4:53 AM,64.0,54.0,70,29.95,10.0,SE,6.9,-,N/A,,Clear,140,2012-03-20 09:53:00
5:53 AM,63.0,54.0,72,29.96,10.0,SSE,5.8,-,N/A,,Clear,150,2012-03-20 10:53:00
6:53 AM,63.0,55.0,75,29.98,10.0,SSE,6.9,-,N/A,,Clear,150,2012-03-20 11:53:00
7:53 AM,64.9,55.0,70,29.98,10.0,SE,9.2,-,N/A,,Clear,140,2012-03-20 12:53:00
8:53 AM,70.0,55.9,61,30.00,10.0,SE,10.4,-,N/A,,Clear,140,2012-03-20 13:53:00
9:53 AM,72.0,55.0,55,30.02,10.0,SSE,10.4,19.6,N/A,,Clear,160,2012-03-20 14:53:00
10:53 AM,75.9,53.1,45,30.02,10.0,South,13.8,25.3,N/A,,Clear,170,2012-03-20 15:53:00
11:53 AM,78.1,53.1,42,30.02,10.0,South,13.8,28.8,N/A,,Clear,180,2012-03-20 16:53:00
12:53 PM,80.1,54.0,40,30.01,10.0,SSW,11.5,24.2,N/A,,Clear,200,2012-03-20 17:53:00
1:53 PM,82.0,53.1,37,29.96,10.0,South,16.1,27.6,N/A,,Clear,170,2012-03-20 18:53:00
2:53 PM,82.0,52.0,35,29.93,10.0,SSE,19.6,29.9,N/A,,Clear,150,2012-03-20 19:53:00
3:53 PM,82.9,53.1,36,29.91,10.0,South,16.1,24.2,N/A,,Clear,170,2012-03-20 20:53:00
4:53 PM,82.4,53.6,37,29.91,10.0,SSE,10.4,25.3,N/A,,Clear,160,2012-03-20 21:53:00
5:53 PM,80.6,53.6,39,29.91,10.0,SSE,9.2,19.6,N/A,,Mostly Cloudy,150,2012-03-20 22:53:00
6:53 PM,77.0,54.0,45,29.90,10.0,SSE,6.9,-,N/A,,Partly Cloudy,150,2012-03-20 23:53:00
7:53 PM,77.0,54.0,45,29.91,10.0,SE,8.1,-,N/A,,Clear,130,2012-03-21 00:53:00
8:53 PM,75.9,54.0,46,29.94,10.0,SE,8.1,-,N/A,,Clear,130,2012-03-21 01:53:00
9:53 PM,75.0,54.0,48,29.96,10.0,SE,6.9,-,N/A,,Clear,140,2012-03-21 02:53:00
10:53 PM,73.0,54.0,51,29.97,10.0,SE,8.1,-,N/A,,Partly Cloudy,130,2012-03-21 03:53:00
11:53 PM,75.0,54.0,48,29.97,10.0,SE,10.4,-,N/A,,Clear,140,2012-03-21 04:53:00